Stations météo

réclame
Mon MeteoGroup
Perigueux, France (7428): Température de l'air & dewpoint: 19.09.2018 09:00:00 - 25.09.2018 09:00:00 (CEST)Perigueux, France (7428): Vitesse du vent & gusts: 19.09.2018 09:00:00 - 25.09.2018 09:00:00 (CEST)Perigueux, France (7428): Direction du vent: 19.09.2018 09:00:00 - 25.09.2018 09:00:00 (CEST)Perigueux, France (7428): reduced air pressure: 19.09.2018 09:00:00 - 25.09.2018 09:00:00 (CEST)Perigueux, France (7428): visibility: 19.09.2018 09:00:00 - 25.09.2018 09:00:00 (CEST)
Date & Time tt [°C] td [°C] ff [km/h] ff [knt] fx [km/h] fx [knt] dd ppp [hPa] vv [km]
25.09.2018 09:00:00 6,9 4,6 2 1 5 3 E 1029,6 55
25.09.2018 08:00:00 4,0 3,0 2 1 4 2 ESE 1029,4 55
25.09.2018 07:00:00 4,8 3,3 0 0 5 3 N 1029,4 60
25.09.2018 06:00:00 6,2 3,5 0 0 8 4 N 1029,7 60
25.09.2018 05:00:00 7,5 3,7 5 3 11 6 ESE 1030,0 60
25.09.2018 04:00:00 8,0 3,8 5 3 9 5 ENE 1030,2 60
25.09.2018 03:00:00 9,0 4,2 5 3 11 6 ENE 1030,8 60
25.09.2018 02:00:00 9,2 4,2 5 3 11 6 E 1030,9 60
25.09.2018 01:00:00 10,0 4,8 5 3 13 7 ENE 1031,2 60
25.09.2018 00:00:00 10,6 4,9 5 3 11 6 E 1031,2 60
24.09.2018 23:00:00 11,8 5,4 4 2 9 5 E 1031,2 60
24.09.2018 22:00:00 12,6 5,7 5 3 11 6 E 1030,9 60
24.09.2018 21:00:00 13,6 5,2 4 2 18 10 ENE 1030,9 60
24.09.2018 20:00:00 15,6 5,2 11 6 35 19 NE 1030,2 60
24.09.2018 19:00:00 17,3 4,9 11 6 41 22 NE 1029,8 60
24.09.2018 18:00:00 18,1 5,0 21 11 41 22 NE 1029,5 55
24.09.2018 17:00:00 18,8 5,9 18 10 39 21 NNE 1029,7 55
24.09.2018 16:00:00 18,1 4,6 24 13 42 23 NE 1029,9 60
24.09.2018 15:00:00 18,2 6,1 18 10 39 21 NNE 1030,1 50
24.09.2018 14:00:00 17,2 5,5 21 11 39 21 NE 1030,4 55
24.09.2018 13:00:00 16,2 5,8 18 10 42 23 NNE 1031,0 60
24.09.2018 12:00:00 15,5 6,5 16 9 34 18 NNE 1031,2 60
24.09.2018 11:00:00 14,5 6,8 16 9 39 21 NE 1031,0 55
24.09.2018 10:00:00 13,1 7,3 16 9 28 15 NNE 1030,5 60
24.09.2018 09:00:00 11,0 7,7 9 5 22 12 N 1030,1 55
24.09.2018 08:00:00 10,6 8,0 8 4 15 8 N 1029,5 60
24.09.2018 07:00:00 11,3 8,5 2 1 11 6 NNE 1028,7 60
24.09.2018 06:00:00 11,2 8,2 5 3 13 7 N 1028,3 60
24.09.2018 05:00:00 12,8 8,7 8 4 16 9 NNE 1028,0 60
24.09.2018 04:00:00 12,8 8,5 8 4 21 11 NE 1027,5 60
24.09.2018 03:00:00 13,9 9,7 13 7 39 21 NNE 1027,2 60
24.09.2018 02:00:00 15,9 13,0 16 9 37 20 NNE 1026,4 60
24.09.2018 01:00:00 16,1 13,6 9 5 39 21 NNE 1026,0 50
24.09.2018 00:00:00 18,9 17,6 8 4 28 15 NW 1024,8 60
23.09.2018 23:00:00 19,3 18,0 13 7 29 16 WNW 1024,4 60
23.09.2018 22:00:00 19,9 19,1 9 5 21 11 W 1023,7 18
23.09.2018 21:00:00 20,7 18,8 13 7 31 17 W 1023,0 7
23.09.2018 20:00:00 21,7 18,3 15 8 28 15 W 1022,5 60
23.09.2018 19:00:00 22,4 18,2 15 8 42 23 W 1022,2 60
23.09.2018 18:00:00 24,6 18,3 24 13 39 21 WNW 1021,4 50
23.09.2018 17:00:00 26,3 17,6 18 10 31 17 W 1020,8 55
23.09.2018 16:00:00 26,2 17,3 15 8 29 16 W 1021,2 60
23.09.2018 15:00:00 26,1 17,2 15 8 31 17 W 1021,3 60
23.09.2018 14:00:00 24,5 17,2 9 5 24 13 SW 1022,0 55
23.09.2018 13:00:00 22,6 17,3 9 5 22 12 W 1022,7 55
23.09.2018 12:00:00 21,4 17,2 11 6 22 12 SW 1022,9 55
23.09.2018 11:00:00 19,6 16,8 4 2 11 6 W 1023,3 50
23.09.2018 10:00:00 16,4 14,9 0 0 5 3 N 1023,3 55
23.09.2018 09:00:00 14,8 13,8 2 1 5 3 E 1023,2 40
23.09.2018 08:00:00 13,9 13,3 4 2 5 3 E 1023,4 12
23.09.2018 07:00:00 13,4 12,8 4 2 8 4 NE 1023,5 40
23.09.2018 06:00:00 12,9 12,4 5 3 8 4 E 1023,4 8
23.09.2018 05:00:00 12,3 12,0 0 0 4 2 N 1023,8 40
23.09.2018 04:00:00 11,6 11,1 0 0 0 0 N 1024,0 4,1
23.09.2018 03:00:00 12,0 11,5 0 0 4 2 N 1024,3 19
23.09.2018 02:00:00 12,3 11,7 0 0 4 2 N 1024,3 40
23.09.2018 01:00:00 12,9 12,1 0 0 2 1 N 1024,4 45
23.09.2018 00:00:00 13,2 12,1 0 0 4 2 N 1024,3 45
22.09.2018 23:00:00 14,1 12,7 0 0 4 2 N 1024,1 55
22.09.2018 22:00:00 15,0 12,7 0 0 4 2 N 1023,8 60
22.09.2018 21:00:00 16,5 13,0 0 0 5 3 N 1023,3 60
22.09.2018 20:00:00 19,5 13,2 2 1 11 6 SE 1023,0 60
22.09.2018 19:00:00 23,1 10,8 5 3 16 9 S 1022,5 55
22.09.2018 18:00:00 23,8 10,5 5 3 18 10 WSW 1022,6 50
22.09.2018 17:00:00 23,2 9,6 8 4 18 10 W 1022,8 45
22.09.2018 16:00:00 22,4 9,2 8 4 16 9 WSW 1023,2 40
22.09.2018 15:00:00 21,4 12,5 4 2 16 9 NNW 1023,9 60
22.09.2018 14:00:00 19,9 12,6 4 2 16 9 SSW 1024,4 60
22.09.2018 13:00:00 18,2 13,5 5 3 24 13 SSE 1024,7 60
22.09.2018 12:00:00 15,6 12,7 5 3 16 9 ESE 1024,8 35
22.09.2018 11:00:00 13,8 12,9 4 2 13 7 ESE 1025,2 50
22.09.2018 10:00:00 13,5 13,3 5 3 9 5 ESE 1025,0 9
22.09.2018 09:00:00 12,5 12,3 4 2 9 5 E 1025,1 1,8
22.09.2018 08:00:00 12,3 12,3 2 1 11 6 ESE 1024,9 1,7
22.09.2018 07:00:00 12,2 12,2 5 3 9 5 ESE 1024,4 4,1
22.09.2018 06:00:00 12,0 12,0 2 1 5 3 NNW 1024,5 0,3
22.09.2018 05:00:00 11,6 11,4 2 1 5 3 NW 1024,8 0,1
22.09.2018 04:00:00 12,1 11,9 4 2 5 3 WNW 1024,8 0,1
22.09.2018 03:00:00 12,3 12,1 0 0 4 2 N 1025,0 0,1
22.09.2018 02:00:00 12,5 12,3 0 0 2 1 N 1025,2 0,1
22.09.2018 01:00:00 12,3 12,1 0 0 2 1 N 1025,2 0,1
22.09.2018 00:00:00 12,7 12,2 0 0 4 2 N 1025,3 0,4
21.09.2018 23:00:00 13,7 13,4 2 1 4 2 SSW 1024,7 11
21.09.2018 22:00:00 14,0 13,4 0 0 4 2 N 1024,1 5
21.09.2018 21:00:00 14,8 14,0 2 1 5 3 SSW 1023,4 19
21.09.2018 20:00:00 15,5 14,2 0 0 5 3 N 1023,0 17
21.09.2018 19:00:00 16,6 14,1 0 0 5 3 N 1022,6 60
21.09.2018 18:00:00 16,5 13,4 4 2 8 4 NNW 1022,1 55
21.09.2018 17:00:00 16,1 13,9 8 4 18 10 NNW 1021,6 14
21.09.2018 16:00:00 15,8 14,7 15 8 34 18 WNW 1021,4 3,8
21.09.2018 15:00:00 17,1 15,6 11 6 31 17 NNW 1020,5 6
21.09.2018 14:00:00 18,7 17,2 11 6 34 18 W 1019,8 19
21.09.2018 13:00:00 21,8 17,4 11 6 31 17 SW 1019,0 40
21.09.2018 12:00:00 21,6 17,0 13 7 28 15 SW 1018,9 45
21.09.2018 11:00:00 20,6 17,2 13 7 22 12 SW 1018,8 27
21.09.2018 10:00:00 18,6 16,9 5 3 9 5 SSW 1018,2 18
21.09.2018 09:00:00 16,7 16,2 2 1 4 2 ESE 1018,3 13
21.09.2018 08:00:00 15,9 15,6 2 1 5 3 E 1017,4 12
21.09.2018 07:00:00 15,2 14,9 0 0 8 4 N 1016,6 11
21.09.2018 06:00:00 14,2 13,9 5 3 8 4 E 1016,5 5
21.09.2018 05:00:00 14,8 14,5 0 0 4 2 N 1016,2 3,3
21.09.2018 04:00:00 14,8 14,3 2 1 8 4 ESE 1016,3 6
21.09.2018 03:00:00 15,4 14,8 4 2 8 4 WSW 1016,5 7
21.09.2018 02:00:00 15,9 15,1 0 0 5 3 N 1015,7 12
21.09.2018 01:00:00 16,8 16,2 2 1 5 3 E 1015,6 8
21.09.2018 00:00:00 17,1 16,0 0 0 8 4 N 1015,8 17
20.09.2018 23:00:00 18,0 16,5 2 1 4 2 ESE 1015,5 19
20.09.2018 22:00:00 19,3 16,3 0 0 4 2 N 1015,5 35
20.09.2018 21:00:00 21,1 17,3 0 0 4 2 N 1015,1 40
20.09.2018 20:00:00 25,1 17,8 0 0 11 6 N 1014,9 55
20.09.2018 19:00:00 30,2 16,2 5 3 21 11 WSW 1014,9 60
20.09.2018 18:00:00 31,1 16,7 8 4 18 10 SSW 1015,2 50
20.09.2018 17:00:00 31,0 16,2 8 4 16 9 S 1015,8 60
20.09.2018 16:00:00 30,7 16,7 5 3 18 10 S 1016,5 55
20.09.2018 15:00:00 29,7 17,2 11 6 21 11 SSW 1017,3 50
20.09.2018 14:00:00 28,8 18,0 5 3 13 7 NNE 1018,3 60
20.09.2018 13:00:00 27,2 17,7 4 2 9 5 ENE 1019,3 45
20.09.2018 12:00:00 24,9 17,1 4 2 8 4 NE 1020,1 19
20.09.2018 11:00:00 22,2 16,0 2 1 5 3 E 1020,8 19
20.09.2018 10:00:00 18,3 15,0 0 0 5 3 N 1021,0 19
20.09.2018 09:00:00 14,7 14,2 2 1 5 3 E 1021,0 12
20.09.2018 08:00:00 13,3 13,0 2 1 4 2 ESE 1021,3 6
20.09.2018 07:00:00 13,3 13,0 0 0 8 4 N 1021,2 5
20.09.2018 06:00:00 13,6 13,3 0 0 5 3 N 1021,4 9
20.09.2018 05:00:00 13,6 13,1 0 0 2 1 N 1021,5 5
20.09.2018 04:00:00 14,5 14,0 0 0 4 2 N 1021,4 3,7
20.09.2018 03:00:00 15,2 14,7 0 0 4 2 N 1021,5 13
20.09.2018 02:00:00 14,9 14,4 0 0 4 2 N 1021,6 6
20.09.2018 01:00:00 15,6 14,8 0 0 4 2 N 1021,8 8
20.09.2018 00:00:00 16,5 15,5 0 0 5 3 N 1021,9 14
19.09.2018 23:00:00 17,3 15,5 0 0 5 3 N 1021,6 19
19.09.2018 22:00:00 19,0 16,4 4 2 8 4 ESE 1021,1 40
19.09.2018 21:00:00 20,9 16,3 0 0 5 3 N 1020,6 50
19.09.2018 20:00:00 24,5 16,5 2 1 15 8 NNW 1020,1 60
19.09.2018 19:00:00 27,3 16,6 11 6 21 11 NNW 1019,8 50
19.09.2018 18:00:00 28,5 16,7 11 6 24 13 NW 1019,6 55
19.09.2018 17:00:00 29,1 17,0 9 5 26 14 NNW 1019,6 19
19.09.2018 16:00:00 28,6 17,8 13 7 24 13 NNW 1020,1 19
19.09.2018 15:00:00 28,8 18,0 5 3 18 10 WSW 1020,2 19
19.09.2018 14:00:00 28,2 18,3 5 3 15 8 SSW 1020,7 19
19.09.2018 13:00:00 26,5 18,1 4 2 9 5 NE 1020,9 60
19.09.2018 12:00:00 23,9 17,6 4 2 15 8 NE 1021,5 35
19.09.2018 11:00:00 21,5 16,9 4 2 8 4 NNE 1021,6 19
19.09.2018 10:00:00 18,0 16,3 0 0 4 2 N 1021,5 17
19.09.2018 09:00:00 16,8 16,5 0 0 5 3 N 1021,1 8

tt = Température de l'air
td = dewpoint
ff = Vitesse du vent
fx = gusts
dd = Direction du vent
ppp = reduced air pressure
vv = visibility

stations d'obs. à proximité